Time,TemperatureF,DewpointF,PressureIn,WindDirection,WindDirectionDegrees,WindSpeedMPH,WindSpeedGustMPH,Humidity,HourlyPrecipIn,Conditions,Clouds,dailyrainin,SolarRadiationWatts/m^2,SoftwareType,DateUTC
2013-07-31 00:52:00,62.0,43.0,-100.00,ESE,117,5.0,7.0,49,0.00,,,0.00,0.000000,,2013-07-31 07:52:00,
2013-07-31 01:02:00,62.0,43.0,-100.00,ESE,117,5.0,7.0,49,0.00,,,0.00,0.000000,,2013-07-31 08:02:00,
2013-07-31 01:33:00,61.0,46.0,-100.00,SE,128,6.0,7.0,58,0.00,,,0.00,0.000000,,2013-07-31 08:33:00,
2013-07-31 01:42:00,61.0,46.0,-100.00,SE,128,6.0,7.0,58,0.00,,,0.00,0.000000,,2013-07-31 08:42:00,
2013-07-31 01:53:00,61.0,46.0,-100.00,SE,128,6.0,7.0,58,0.00,,,0.00,0.000000,,2013-07-31 08:53:00,
2013-07-31 02:02:00,61.0,46.0,-100.00,SE,128,6.0,7.0,58,0.00,,,0.00,0.000000,,2013-07-31 09:02:00,
2013-07-31 02:44:00,64.0,48.0,-100.00,ESE,113,6.0,8.0,56,0.00,,,0.00,0.000000,,2013-07-31 09:44:00,
2013-07-31 02:52:00,64.0,48.0,-100.00,ESE,113,6.0,8.0,56,0.00,,,0.00,0.000000,,2013-07-31 09:52:00,
2013-07-31 03:02:00,64.0,48.0,-100.00,ESE,113,6.0,8.0,56,0.00,,,0.00,0.000000,,2013-07-31 10:02:00,
2013-07-31 03:32:00,62.0,48.0,-100.00,South,184,7.0,10.0,60,0.00,,,0.00,0.000000,,2013-07-31 10:32:00,
2013-07-31 03:44:00,62.0,48.0,-100.00,South,184,7.0,10.0,60,0.00,,,0.00,0.000000,,2013-07-31 10:44:00,
2013-07-31 03:52:00,62.0,48.0,-100.00,South,184,7.0,10.0,60,0.00,,,0.00,0.000000,,2013-07-31 10:52:00,
2013-07-31 04:03:00,62.0,48.0,-100.00,South,184,7.0,10.0,60,0.00,,,0.00,0.000000,,2013-07-31 11:03:00,
2013-07-31 04:33:00,60.0,49.0,-100.00,SE,139,6.0,11.0,68,0.00,,,0.00,0.000000,,2013-07-31 11:33:00,
2013-07-31 04:43:00,60.0,49.0,-100.00,SE,139,6.0,11.0,68,0.00,,,0.00,0.000000,,2013-07-31 11:43:00,
2013-07-31 04:53:00,60.0,49.0,-100.00,SE,139,6.0,11.0,68,0.00,,,0.00,0.000000,,2013-07-31 11:53:00,
2013-07-31 05:02:00,60.0,49.0,-100.00,SE,139,6.0,11.0,68,0.00,,,0.00,0.000000,,2013-07-31 12:02:00,
2013-07-31 05:33:00,59.0,48.0,-100.00,SE,125,5.0,9.0,68,0.00,,,0.00,0.000000,,2013-07-31 12:33:00,
2013-07-31 05:43:00,59.0,48.0,-100.00,SE,125,5.0,9.0,68,0.00,,,0.00,0.000000,,2013-07-31 12:43:00,
2013-07-31 05:52:00,59.0,48.0,-100.00,SE,125,5.0,9.0,68,0.00,,,0.00,0.000000,,2013-07-31 12:52:00,
2013-07-31 06:02:00,59.0,48.0,-100.00,SE,125,5.0,9.0,68,0.00,,,0.00,0.000000,,2013-07-31 13:02:00,
2013-07-31 06:43:00,57.0,47.0,-100.00,SE,141,4.0,8.0,69,0.00,,,0.00,5.000000,,2013-07-31 13:43:00,
2013-07-31 06:53:00,57.0,47.0,-100.00,SE,141,4.0,8.0,69,0.00,,,0.00,5.000000,,2013-07-31 13:53:00,
2013-07-31 07:02:00,57.0,47.0,-100.00,SE,141,4.0,8.0,69,0.00,,,0.00,5.000000,,2013-07-31 14:02:00,
2013-07-31 07:43:00,64.0,44.0,-100.00,ESE,113,6.0,9.0,49,0.00,,,0.00,52.000000,,2013-07-31 14:43:00,
2013-07-31 07:53:00,64.0,44.0,-100.00,ESE,113,6.0,9.0,49,0.00,,,0.00,52.000000,,2013-07-31 14:53:00,
2013-07-31 08:02:00,64.0,44.0,-100.00,ESE,113,6.0,9.0,49,0.00,,,0.00,52.000000,,2013-07-31 15:02:00,
2013-07-31 08:44:00,70.0,49.0,-100.00,NNW,339,3.0,6.0,47,0.00,,,0.00,115.000000,,2013-07-31 15:44:00,
2013-07-31 08:53:00,70.0,49.0,-100.00,NNW,339,3.0,6.0,47,0.00,,,0.00,115.000000,,2013-07-31 15:53:00,
2013-07-31 09:02:00,70.0,49.0,-100.00,NNW,339,3.0,6.0,47,0.00,,,0.00,115.000000,,2013-07-31 16:02:00,
2013-07-31 09:44:00,74.0,48.0,-100.00,North,357,7.0,10.0,40,0.00,,,0.00,196.000000,,2013-07-31 16:44:00,
2013-07-31 09:52:00,74.0,48.0,-100.00,North,357,7.0,10.0,40,0.00,,,0.00,196.000000,,2013-07-31 16:52:00,
2013-07-31 10:02:00,74.0,48.0,-100.00,North,357,7.0,10.0,40,0.00,,,0.00,196.000000,,2013-07-31 17:02:00,
2013-07-31 10:43:00,79.0,47.0,-100.00,ENE,72,6.0,11.0,32,0.00,,,0.00,352.000000,,2013-07-31 17:43:00,
2013-07-31 10:53:00,79.0,47.0,-100.00,ENE,72,6.0,11.0,32,0.00,,,0.00,352.000000,,2013-07-31 17:53:00,
2013-07-31 11:02:00,79.0,47.0,-100.00,ENE,72,6.0,11.0,32,0.00,,,0.00,352.000000,,2013-07-31 18:02:00,
2013-07-31 11:33:00,80.0,45.0,-100.00,NNE,16,10.0,14.0,29,0.00,,,0.00,376.000000,,2013-07-31 18:33:00,
2013-07-31 11:43:00,80.0,45.0,-100.00,NNE,16,10.0,14.0,29,0.00,,,0.00,376.000000,,2013-07-31 18:43:00,
2013-07-31 11:52:00,80.0,45.0,-100.00,NNE,16,10.0,14.0,29,0.00,,,0.00,376.000000,,2013-07-31 18:52:00,
2013-07-31 12:02:00,80.0,45.0,-100.00,NNE,16,10.0,14.0,29,0.00,,,0.00,376.000000,,2013-07-31 19:02:00,
2013-07-31 12:53:00,83.0,40.0,-100.00,NE,51,8.0,16.0,22,0.00,,,0.00,392.000000,,2013-07-31 19:53:00,
2013-07-31 13:02:00,83.0,40.0,-100.00,NE,51,8.0,16.0,22,0.00,,,0.00,392.000000,,2013-07-31 20:02:00,
2013-07-31 13:43:00,87.0,40.0,-100.00,North,1,6.0,13.0,19,0.00,,,0.00,535.000000,,2013-07-31 20:43:00,
2013-07-31 13:53:00,87.0,40.0,-100.00,North,1,6.0,13.0,19,0.00,,,0.00,535.000000,,2013-07-31 20:53:00,
2013-07-31 14:02:00,87.0,40.0,-100.00,North,1,6.0,13.0,19,0.00,,,0.00,535.000000,,2013-07-31 21:02:00,
2013-07-31 14:43:00,89.0,38.0,-100.00,NNE,20,5.0,13.0,17,0.00,,,0.00,566.000000,,2013-07-31 21:43:00,
2013-07-31 15:02:00,89.0,38.0,-100.00,NNE,20,5.0,13.0,17,0.00,,,0.00,566.000000,,2013-07-31 22:02:00,
2013-07-31 16:02:00,87.0,35.0,-100.00,NE,45,10.0,20.0,16,0.00,,,0.00,407.000000,,2013-07-31 23:02:00,
2013-07-31 16:32:00,85.0,42.0,-100.00,NE,34,8.0,23.0,22,0.00,,,0.00,275.000000,,2013-07-31 23:32:00,
2013-07-31 16:42:00,85.0,42.0,-100.00,NE,34,8.0,23.0,22,0.00,,,0.00,275.000000,,2013-07-31 23:42:00,
2013-07-31 16:52:00,85.0,42.0,-100.00,NE,34,8.0,23.0,22,0.00,,,0.00,275.000000,,2013-07-31 23:52:00,
2013-07-31 17:02:00,85.0,42.0,-100.00,NE,34,8.0,23.0,22,0.00,,,0.00,275.000000,,2013-08-01 00:02:00,
2013-07-31 17:43:00,85.0,38.0,-100.00,ESE,110,7.0,15.0,19,0.00,,,0.00,172.000000,,2013-08-01 00:43:00,
2013-07-31 17:52:00,85.0,38.0,-100.00,ESE,110,7.0,15.0,19,0.00,,,0.00,172.000000,,2013-08-01 00:52:00,
2013-07-31 18:43:00,83.0,39.0,-100.00,South,185,8.0,23.0,21,0.00,,,0.00,102.000000,,2013-08-01 01:43:00,
2013-07-31 18:53:00,83.0,39.0,-100.00,South,185,8.0,23.0,21,0.00,,,0.00,102.000000,,2013-08-01 01:53:00,
2013-07-31 20:02:00,81.0,39.0,-100.00,ESE,114,1.0,9.0,22,0.00,,,0.00,55.000000,,2013-08-01 03:02:00,
2013-07-31 20:32:00,79.0,38.0,-100.00,NW,321,4.0,16.0,23,0.00,,,0.00,34.000000,,2013-08-01 03:32:00,
2013-07-31 20:43:00,79.0,38.0,-100.00,NW,321,4.0,16.0,23,0.00,,,0.00,34.000000,,2013-08-01 03:43:00,
2013-07-31 20:53:00,79.0,38.0,-100.00,NW,321,4.0,16.0,23,0.00,,,0.00,34.000000,,2013-08-01 03:53:00,
2013-07-31 21:02:00,79.0,38.0,-100.00,NW,321,4.0,16.0,23,0.00,,,0.00,34.000000,,2013-08-01 04:02:00,
2013-07-31 21:43:00,72.0,45.0,-100.00,SE,139,6.0,22.0,38,0.00,,,0.00,5.000000,,2013-08-01 04:43:00,
2013-07-31 21:53:00,72.0,45.0,-100.00,SE,139,6.0,22.0,38,0.00,,,0.00,5.000000,,2013-08-01 04:53:00,
2013-07-31 22:02:00,72.0,45.0,-100.00,SE,139,6.0,22.0,38,0.00,,,0.00,5.000000,,2013-08-01 05:02:00,
2013-07-31 22:33:00,70.0,45.0,-100.00,ENE,65,5.0,12.0,40,0.00,,,0.00,0.000000,,2013-08-01 05:33:00,
2013-07-31 22:43:00,70.0,45.0,-100.00,ENE,65,5.0,12.0,40,0.00,,,0.00,0.000000,,2013-08-01 05:43:00,
2013-07-31 22:53:00,70.0,45.0,-100.00,ENE,65,5.0,12.0,40,0.00,,,0.00,0.000000,,2013-08-01 05:53:00,
2013-07-31 23:02:00,70.0,45.0,-100.00,ENE,65,5.0,12.0,40,0.00,,,0.00,0.000000,,2013-08-01 06:02:00,
2013-07-31 23:33:00,70.0,44.0,-100.00,SE,129,4.0,10.0,39,0.00,,,0.00,0.000000,,2013-08-01 06:33:00,
2013-07-31 23:43:00,70.0,44.0,-100.00,SE,129,4.0,10.0,39,0.00,,,0.00,0.000000,,2013-08-01 06:43:00,
2013-07-31 23:52:00,70.0,44.0,-100.00,SE,129,4.0,10.0,39,0.00,,,0.00,0.000000,,2013-08-01 06:52:00,